SCP
0 0 0 0 0 1 1 0 0 0 0 0 1 0 0 0 0 0 1 1 1 0 0 0 0 0 0 0 0 0 0 0 0 0 0 0 0 0
0 0 0 -0 0 0 0 0 0 0 0 0 0 1 0 0 0 0 0 0 0 0 0 0 0 0 0 0 0 0 0 0 0 0 0 0 0 0
0 0 -0 -0 -0 -0 0 0 0 0 0 0 0 1 0 0 0 0 0 0 0 0 0 0 0 0 0 0 0 0 0 0 0 0 0 0 0 0
-0 0 0 -0 -0 -0 0 0 0 0 0 0 0 0 0 0 0 0 0 0 0 0 0 0 0 0 0 0 0 0 0 0 0 0 0 0 0 0
-0 0 0 0 0 0 0 0 0 0 0 0 0 0 0 0 0 0 0 0 0 0 0 0 0 0 0 0 0 0 0 0 0 0 0 0 0 0
0 0 0 0 0 0 0 0 0 0 0 0 0 0 0 0 0 0 0 0 0 0 0 0 0 0 -0 0 0 0 0 0 0 0 0 0 0 0
1 1 0 0 0 0 1 1 0 0 0 0 0 0 0 0 0 0 0 0 0 0 0 0 0 0 0 0 0 0 0 0 0 0 0 0 0 0
2 1 1 0 0 0 0 1 1 0 0 0 0 0 0 0 0 0 0 0 0 0 0 0 0 0 0 0 0 0 0 0 0 0 0 0 0 0
2 2 1 1 0 1 0 0 0 0 0 0 0 0 0 0 0 0 0 0 0 0 0 0 0 0 0 0 0 0 0 0 0 0 0 0 0 0
2 2 1 2 1 1 1 1 0 0 0 0 0 0 1 0 0 0 0 0 0 0 0 0 0 0 0 0 0 0 0 0 0 0 0 0 0 0
3 3 3 2 1 1 1 1 1 0 0 0 -0 0 0 0 0 0 0 0 0 0 0 0 0 0 0 0 0 0 0 0 0 0 0 0 0 0
2 3 1 0 0 1 1 1 1 1 0 1 0 0 0 0 0 0 0 0 0 0 0 0 0 0 0 0 0 0 0 0 0 0 0 0 0 0
2 2 2 0 0 0 0 3 1 1 1 3 1 1 1 1 1 0 0 0 0 0 0 0 0 0 0 0 0 0 0 0 0 0 0 0 0 0
1 1 0 0 0 0 0 0 0 0 0 1 2 1 1 1 1 1 1 0 0 0 1 0 0 0 0 0 0 1 0 0 0 0 0 0 0 0
1 0 0 0 0 0 0 0 0 0 0 0 1 1 2 2 1 1 1 1 1 1 1 1 1 1 1 0 0 0 0 0 0 0 0 0 0 0
0 0 0 0 0 0 0 0 0 0 0 0 0 0 0 0 1 0 1 1 1 1 1 1 1 1 1 1 1 0 1 1 1 0 0 0 0 0
0 0 0 0 0 0 0 0 0 0 0 0 0 0 0 0 0 0 0 1 1 0 0 0 0 0 0 0 0 0 0 0 1 1 0 0 0 0
0 0 0 0 0 0 0 0 0 0 0 0 0 0 0 -0 0 0 1 0 0 0 0 0 0 0 0 0 0 0 0 0 0 0 1 0 0 0
0 0 0 0 0 0 0 0 0 0 0 0 0 0 0 0 0 0 0 0 0 0 0 0 0 0 0 0 0 0 0 0 0 0 0 0 0 1
0 0 0 0 0 0 0 0 0 0 0 0 0 0 0 0 0 0 0 0 0 0 0 0 0 0 0 0 0 0 0 0 0 0 0 0 0 0
0 0 0 0 0 0 0 0 0 0 0 0 0 0 0 0 0 0 0 0 0 0 0 0 0 0 0 0 0 0 0 0 0 0 0 0 0 0
0 0 0 0 0 0 0 0 0 0 0 0 0 0 0 0 0 0 0 0 0 0 0 0 0 0 0 0 0 0 0 0 0 0 0 0 0 0
0 0 0 0 0 0 0 0 0 0 0 0 0 0 0 0 0 0 0 0 0 0 0 0 0 0 0 0 0 0 0 0 0 0 0 0 0 0
Wind_Speed_500mb
60 58 57 56 54 50 54 55 52 41 42 35 35 23 24 20 28 40 46 48 51 51 52 51 53 55 58 59 50 42 38 42 41 40 40 40 38 36
61 60 60 59 49 39 52 49 50 52 47 35 35 30 28 29 32 41 41 45 42 40 42 40 43 47 46 41 42 43 44 40 41 40 39 39 37 35
60 56 53 46 38 35 44 50 50 46 42 40 33 32 37 32 29 31 31 27 31 32 33 36 37 39 41 43 40 38 38 38 38 37 38 37 36 33
55 54 47 40 39 37 29 35 38 39 38 39 34 38 36 31 31 29 26 24 24 27 27 30 30 28 33 38 37 37 38 36 36 38 37 35 31 29
56 52 46 43 43 37 38 43 36 38 41 39 33 29 28 24 22 24 25 26 22 20 22 25 29 37 40 37 37 40 40 38 39 37 36 34 29 28
53 51 47 46 47 43 43 42 37 37 38 40 30 31 27 28 23 21 22 21 19 22 25 30 32 33 33 37 42 46 44 39 37 36 35 29 26 25
52 51 49 48 49 45 39 38 42 44 42 40 29 27 26 26 28 16 20 16 21 23 23 25 29 34 34 38 43 41 38 38 36 33 29 25 23 24
56 54 50 52 48 46 42 42 35 38 40 34 28 27 29 26 25 21 19 20 22 24 26 32 26 29 26 28 39 42 35 38 35 30 28 26 25 27
58 54 54 42 50 47 46 43 40 36 36 34 33 30 26 24 24 26 23 24 20 20 25 21 26 29 27 29 44 40 36 33 33 31 29 29 27 29
58 60 60 48 51 45 39 43 41 37 38 40 33 27 25 26 26 22 22 26 24 25 30 29 23 31 30 29 40 37 35 31 31 33 30 31 30 31
57 58 60 56 52 42 39 38 34 32 33 35 37 36 37 35 28 25 22 22 23 23 23 32 25 26 24 27 27 37 34 33 32 34 35 34 35 35
62 57 62 57 51 43 46 43 36 29 30 33 38 42 38 37 35 36 28 32 32 25 25 29 19 20 22 21 18 24 27 23 30 35 37 38 38 40
51 63 64 60 50 45 52 45 34 35 33 33 31 31 34 37 37 42 43 40 37 36 29 29 26 24 27 29 22 21 20 29 28 30 37 42 43 45
56 52 57 53 50 51 49 47 42 40 40 38 38 41 38 38 38 40 38 40 43 47 40 44 38 35 34 35 36 30 24 25 26 24 31 41 44 47
33 40 42 42 48 47 55 60 55 48 45 48 47 42 38 36 32 37 40 40 47 49 49 50 57 48 47 46 42 39 35 33 33 31 31 43 44 52
28 31 30 32 35 43 50 51 51 50 46 38 37 42 35 29 43 46 46 48 54 55 53 51 58 63 65 64 53 54 46 44 35 37 32 45 42 45
16 21 25 28 31 35 37 39 39 49 53 55 61 54 45 49 61 58 48 45 53 48 51 48 42 50 53 58 59 56 57 59 61 59 56 45 46 46
13 6 9 11 11 11 14 18 24 31 43 50 57 63 76 66 42 38 42 47 50 53 51 50 47 46 45 42 42 49 45 44 46 58 62 67 64 62
10 12 12 11 9 8 9 10 11 15 20 22 27 28 27 29 38 41 39 42 47 45 42 39 36 34 35 41 46 45 51 51 54 50 49 62 76 65
10 9 8 8 6 5 5 7 10 13 17 18 18 17 21 23 29 34 36 35 39 41 39 39 37 36 35 38 39 47 50 50 53 58 53 51 67 74
9 12 13 14 15 15 15 12 11 7 6 5 15 19 23 24 26 28 30 32 35 36 38 38 37 40 37 34 35 29 23 16 19 26 30 27 32 23
11 12 18 21 22 22 20 17 14 15 15 10 6 2 5 9 15 20 25 26 26 32 35 35 37 37 33 30 30 30 29 25 18 18 20 32 28 18
7 10 7 10 10 10 9 11 10 12 10 8 8 7 8 7 9 9 10 14 22 24 24 27 23 21 21 24 29 29 23 15 9 8 7 8 7 8
Wind_Direction_500mb
248 255 262 271 276 254 245 238 243 252 259 263 259 280 296 271 272 280 279 274 270 265 259 253 248 245 249 254 256 254 270 273 274 276 281 286 285 285
245 250 256 264 269 250 225 230 235 244 257 258 271 276 269 276 284 287 281 280 276 267 259 253 250 250 254 251 247 262 269 270 273 278 282 283 285 286
243 245 252 255 253 236 235 241 245 244 251 264 264 273 273 282 275 282 288 283 279 269 254 247 250 257 259 256 254 260 264 268 276 280 280 281 282 283
234 240 241 237 239 229 237 240 237 239 243 258 261 260 271 270 277 277 280 279 281 269 259 254 250 248 254 260 261 264 272 274 276 276 278 278 279 278
231 237 237 229 228 219 230 235 240 245 254 256 260 265 256 262 272 276 275 281 275 266 260 254 254 257 263 262 260 262 268 274 274 277 276 273 272 267
229 232 231 223 219 220 221 237 234 239 246 255 257 260 258 264 267 265 273 273 267 270 267 263 256 259 259 259 263 267 267 270 274 275 273 263 260 258
227 229 228 227 224 222 216 227 236 239 242 246 240 250 250 250 263 257 266 263 263 259 262 262 269 266 266 269 266 271 276 276 271 273 261 254 252 247
226 229 229 235 229 221 219 212 230 237 235 230 226 235 246 243 252 242 251 261 280 285 257 253 250 266 270 269 276 287 286 268 262 260 256 252 247 241
228 225 226 226 226 224 221 223 230 228 232 239 227 225 230 238 232 246 236 244 254 270 273 273 269 269 265 267 274 276 283 274 257 249 252 250 249 240
232 228 233 216 231 217 223 218 223 225 227 233 234 230 230 222 230 247 247 261 258 256 264 259 258 266 273 271 274 285 283 271 259 248 248 245 245 237
231 225 227 220 224 219 219 218 217 210 249 243 238 230 223 225 223 223 236 244 253 263 260 252 270 270 271 272 274 284 289 270 258 246 243 240 241 238
231 227 223 221 221 220 226 220 210 217 220 240 239 236 228 231 236 240 232 237 252 257 257 246 278 273 273 262 252 270 289 279 267 257 243 240 237 236
221 223 221 216 217 222 227 220 218 211 221 218 234 238 242 239 238 245 246 242 246 253 261 248 257 252 252 260 265 270 252 264 274 261 251 244 239 237
238 241 226 228 225 219 221 225 229 233 228 231 236 241 242 244 242 241 246 250 252 259 253 256 252 256 259 259 266 262 251 259 249 253 251 249 243 241
225 226 232 232 233 233 234 234 229 224 231 239 243 246 241 246 252 258 259 260 262 261 261 258 260 254 256 258 261 263 259 252 259 248 244 245 252 245
221 221 222 229 238 235 230 233 236 238 240 244 252 251 242 254 269 268 275 281 274 274 274 268 261 261 261 261 261 260 258 257 256 255 253 250 252 246
221 227 228 234 239 242 238 239 240 241 244 246 247 254 270 282 285 277 273 268 265 267 271 284 274 268 260 262 265 265 267 267 264 258 256 252 247 246
115 119 174 178 184 212 233 244 244 246 243 244 249 258 266 274 273 268 258 262 264 268 268 272 272 268 264 266 268 272 266 269 273 263 255 255 257 260
157 177 165 151 142 146 168 186 205 216 237 244 247 247 243 252 262 261 264 265 267 270 271 274 267 264 267 275 284 286 283 283 279 274 270 260 259 253
107 113 120 124 140 157 198 217 240 238 241 247 252 250 249 252 259 259 268 269 271 273 276 274 275 279 274 273 281 282 285 283 274 267 273 265 257 256
104 99 96 101 101 99 102 103 112 137 149 232 236 242 250 255 265 271 265 267 275 278 276 272 276 277 275 279 274 278 282 288 279 292 261 256 247 256
120 118 108 108 106 101 100 94 80 84 91 101 102 145 253 263 273 277 275 276 278 282 280 275 279 274 276 259 253 262 263 270 266 254 247 251 258 253
130 119 103 103 96 93 98 96 97 95 82 94 72 40 58 17 13 351 325 302 291 284 279 277 272 268 250 260 265 251 227 215 204 206 204 190 175 142
Wind_Speed_850mb
60 58 57 56 54 50 54 55 52 41 42 35 35 23 24 20 28 40 46 48 51 51 52 51 53 55 58 59 50 42 38 42 41 40 40 40 38 36
61 60 60 59 49 39 52 49 50 52 47 35 35 30 28 29 32 41 41 45 42 40 42 40 43 47 46 41 42 43 44 40 41 40 39 39 37 35
60 56 53 46 38 35 44 50 50 46 42 40 33 32 37 32 29 31 31 27 31 32 33 36 37 39 41 43 40 38 38 38 38 37 38 37 36 33
55 54 47 40 39 37 29 35 38 39 38 39 34 38 36 31 31 29 26 24 24 27 27 30 30 28 33 38 37 37 38 36 36 38 37 35 31 29
56 52 46 43 43 37 38 43 36 38 41 39 33 29 28 24 22 24 25 26 22 20 22 25 29 37 40 37 37 40 40 38 39 37 36 34 29 28
53 51 47 46 47 43 43 42 37 37 38 40 30 31 27 28 23 21 22 21 19 22 25 30 32 33 33 37 42 46 44 39 37 36 35 29 26 25
52 51 49 48 49 45 39 38 42 44 42 40 29 27 26 26 28 16 20 16 21 23 23 25 29 34 34 38 43 41 38 38 36 33 29 25 23 24
56 54 50 52 48 46 42 42 35 38 40 34 28 27 29 26 25 21 19 20 22 24 26 32 26 29 26 28 39 42 35 38 35 30 28 26 25 27
58 54 54 42 50 47 46 43 40 36 36 34 33 30 26 24 24 26 23 24 20 20 25 21 26 29 27 29 44 40 36 33 33 31 29 29 27 29
58 60 60 48 51 45 39 43 41 37 38 40 33 27 25 26 26 22 22 26 24 25 30 29 23 31 30 29 40 37 35 31 31 33 30 31 30 31
57 58 60 56 52 42 39 38 34 32 33 35 37 36 37 35 28 25 22 22 23 23 23 32 25 26 24 27 27 37 34 33 32 34 35 34 35 35
62 57 62 57 51 43 46 43 36 29 30 33 38 42 38 37 35 36 28 32 32 25 25 29 19 20 22 21 18 24 27 23 30 35 37 38 38 40
51 63 64 60 50 45 52 45 34 35 33 33 31 31 34 37 37 42 43 40 37 36 29 29 26 24 27 29 22 21 20 29 28 30 37 42 43 45
56 52 57 53 50 51 49 47 42 40 40 38 38 41 38 38 38 40 38 40 43 47 40 44 38 35 34 35 36 30 24 25 26 24 31 41 44 47
33 40 42 42 48 47 55 60 55 48 45 48 47 42 38 36 32 37 40 40 47 49 49 50 57 48 47 46 42 39 35 33 33 31 31 43 44 52
28 31 30 32 35 43 50 51 51 50 46 38 37 42 35 29 43 46 46 48 54 55 53 51 58 63 65 64 53 54 46 44 35 37 32 45 42 45
16 21 25 28 31 35 37 39 39 49 53 55 61 54 45 49 61 58 48 45 53 48 51 48 42 50 53 58 59 56 57 59 61 59 56 45 46 46
13 6 9 11 11 11 14 18 24 31 43 50 57 63 76 66 42 38 42 47 50 53 51 50 47 46 45 42 42 49 45 44 46 58 62 67 64 62
10 12 12 11 9 8 9 10 11 15 20 22 27 28 27 29 38 41 39 42 47 45 42 39 36 34 35 41 46 45 51 51 54 50 49 62 76 65
10 9 8 8 6 5 5 7 10 13 17 18 18 17 21 23 29 34 36 35 39 41 39 39 37 36 35 38 39 47 50 50 53 58 53 51 67 74
9 12 13 14 15 15 15 12 11 7 6 5 15 19 23 24 26 28 30 32 35 36 38 38 37 40 37 34 35 29 23 16 19 26 30 27 32 23
11 12 18 21 22 22 20 17 14 15 15 10 6 2 5 9 15 20 25 26 26 32 35 35 37 37 33 30 30 30 29 25 18 18 20 32 28 18
7 10 7 10 10 10 9 11 10 12 10 8 8 7 8 7 9 9 10 14 22 24 24 27 23 21 21 24 29 29 23 15 9 8 7 8 7 8
Wind_Direction_850mb
248 255 262 271 276 254 245 238 243 252 259 263 259 280 296 271 272 280 279 274 270 265 259 253 248 245 249 254 256 254 270 273 274 276 281 286 285 285
245 250 256 264 269 250 225 230 235 244 257 258 271 276 269 276 284 287 281 280 276 267 259 253 250 250 254 251 247 262 269 270 273 278 282 283 285 286
243 245 252 255 253 236 235 241 245 244 251 264 264 273 273 282 275 282 288 283 279 269 254 247 250 257 259 256 254 260 264 268 276 280 280 281 282 283
234 240 241 237 239 229 237 240 237 239 243 258 261 260 271 270 277 277 280 279 281 269 259 254 250 248 254 260 261 264 272 274 276 276 278 278 279 278
231 237 237 229 228 219 230 235 240 245 254 256 260 265 256 262 272 276 275 281 275 266 260 254 254 257 263 262 260 262 268 274 274 277 276 273 272 267
229 232 231 223 219 220 221 237 234 239 246 255 257 260 258 264 267 265 273 273 267 270 267 263 256 259 259 259 263 267 267 270 274 275 273 263 260 258
227 229 228 227 224 222 216 227 236 239 242 246 240 250 250 250 263 257 266 263 263 259 262 262 269 266 266 269 266 271 276 276 271 273 261 254 252 247
226 229 229 235 229 221 219 212 230 237 235 230 226 235 246 243 252 242 251 261 280 285 257 253 250 266 270 269 276 287 286 268 262 260 256 252 247 241
228 225 226 226 226 224 221 223 230 228 232 239 227 225 230 238 232 246 236 244 254 270 273 273 269 269 265 267 274 276 283 274 257 249 252 250 249 240
232 228 233 216 231 217 223 218 223 225 227 233 234 230 230 222 230 247 247 261 258 256 264 259 258 266 273 271 274 285 283 271 259 248 248 245 245 237
231 225 227 220 224 219 219 218 217 210 249 243 238 230 223 225 223 223 236 244 253 263 260 252 270 270 271 272 274 284 289 270 258 246 243 240 241 238
231 227 223 221 221 220 226 220 210 217 220 240 239 236 228 231 236 240 232 237 252 257 257 246 278 273 273 262 252 270 289 279 267 257 243 240 237 236
221 223 221 216 217 222 227 220 218 211 221 218 234 238 242 239 238 245 246 242 246 253 261 248 257 252 252 260 265 270 252 264 274 261 251 244 239 237
238 241 226 228 225 219 221 225 229 233 228 231 236 241 242 244 242 241 246 250 252 259 253 256 252 256 259 259 266 262 251 259 249 253 251 249 243 241
225 226 232 232 233 233 234 234 229 224 231 239 243 246 241 246 252 258 259 260 262 261 261 258 260 254 256 258 261 263 259 252 259 248 244 245 252 245
221 221 222 229 238 235 230 233 236 238 240 244 252 251 242 254 269 268 275 281 274 274 274 268 261 261 261 261 261 260 258 257 256 255 253 250 252 246
221 227 228 234 239 242 238 239 240 241 244 246 247 254 270 282 285 277 273 268 265 267 271 284 274 268 260 262 265 265 267 267 264 258 256 252 247 246
115 119 174 178 184 212 233 244 244 246 243 244 249 258 266 274 273 268 258 262 264 268 268 272 272 268 264 266 268 272 266 269 273 263 255 255 257 260
157 177 165 151 142 146 168 186 205 216 237 244 247 247 243 252 262 261 264 265 267 270 271 274 267 264 267 275 284 286 283 283 279 274 270 260 259 253
107 113 120 124 140 157 198 217 240 238 241 247 252 250 249 252 259 259 268 269 271 273 276 274 275 279 274 273 281 282 285 283 274 267 273 265 257 256
104 99 96 101 101 99 102 103 112 137 149 232 236 242 250 255 265 271 265 267 275 278 276 272 276 277 275 279 274 278 282 288 279 292 261 256 247 256
120 118 108 108 106 101 100 94 80 84 91 101 102 145 253 263 273 277 275 276 278 282 280 275 279 274 276 259 253 262 263 270 266 254 247 251 258 253
130 119 103 103 96 93 98 96 97 95 82 94 72 40 58 17 13 351 325 302 291 284 279 277 272 268 250 260 265 251 227 215 204 206 204 190 175 142